Fond du Lac, WI

9:43 PM CDT on March 24, 2017 (GMT -0500)
Fond du Lac County

Weather History for KFLD - February, 2013

Change the Weather History Date:

Saturday, February 2, 2013

  Actual Average Record
Temperature  
Mean Temperature 3 °F -  
Max Temperature 8 °F 25 °F 46 °F (1987)
Min Temperature -2 °F 10 °F -25 °F (1951)
Degree Days  
Heating Degree Days 62    
Moisture  
Dew Point -3 °F    
Average Humidity 73    
Maximum Humidity 85    
Minimum Humidity 58    
Precipitation  
Precipitation 0.01 in - - ()
Sea Level Pressure  
Sea Level Pressure 30.12 in    
Wind  
Wind Speed 6 mph (West)    
Max Wind Speed 9 mph    
Max Gust Speed -    
Visibility 8 miles    
Events Snow    
Averages and records for this station are not official NWS values.
T = Trace of Precipitation, MM = Missing Value Source: NWS Daily Summary

Daily Weather History Graph

Daily Weather History Graph

Search for Another Location

Airport or City:

Trip Planner

Search our weather history database for the weather conditions in past years. The results will help you decide how hot, cold, wet, or windy it might be!

Date:

Astronomy

Feb. 02, 2013 Rise Set
Actual Time 7:09 AM CST 5:06 PM CST
Civil Twilight 6:38 AM CST 5:37 PM CST
Nautical Twilight 6:04 AM CST 6:11 PM CST
Astronomical Twilight 5:30 AM CST 6:45 PM CST
Moon No Moon Rise 10:04 AM CST (2/2)
Length of Visible Light 10h 58m
Length of Day
9h 57m
Waning Gibbous, 59% of the Moon is Illuminated
Feb 2
Waning Gibbous
Feb 3
Last Quarter
Feb 10
New
Feb 17
First Quarter
Feb 25
Full

Hourly Weather History & Observations

Time (CST) Temp. Windchill Dew Point Humidity Pressure Visibility Wind Dir Wind Speed Gust Speed Precip Events Conditions
12:00 AM 3.2 °F -9.1 °F -0.4 °F 85% 30.11 in 2.0 mi SW 6.9 mph - 0.00 in Snow Light Snow
12:07 AM 3.2 °F -10.3 °F -0.4 °F 85% 30.10 in 1.5 mi SW 8.1 mph - 0.00 in Snow Light Snow
12:15 AM 3.2 °F -10.3 °F -0.4 °F 85% 30.10 in 1.8 mi SW 8.1 mph - 0.00 in Snow Light Snow
12:30 AM 3.2 °F -7.8 °F -0.4 °F 85% 30.09 in 2.0 mi SW 5.8 mph - 0.01 in Snow Light Snow
12:39 AM 3.2 °F -7.8 °F -0.4 °F 85% 30.09 in 3.0 mi SSW 5.8 mph - 0.01 in Snow Light Snow
12:53 AM 5.0 °F -5.6 °F -0.9 °F 76% 30.15 in 5.0 mi SW 5.8 mph - 0.01 in Snow Light Snow
1:53 AM 5.0 °F -2.1 °F -0.9 °F 76% 30.14 in 6.0 mi SW 3.5 mph - 0.00 in Snow Light Snow
3:53 AM 5.0 °F -2.1 °F -0.0 °F 80% 30.11 in 2.5 mi North 3.5 mph - 0.00 in Snow Light Snow
4:14 AM 5.0 °F -4.1 °F -0.4 °F 78% 30.04 in 4.0 mi North 4.6 mph - 0.00 in Snow Light Snow
4:53 AM 5.0 °F -4.1 °F -0.0 °F 80% 30.11 in 10.0 mi North 4.6 mph - 0.00 in   Overcast
5:53 AM 5.0 °F -9.1 °F -2.0 °F 73% 30.11 in 7.0 mi North 9.2 mph - 0.00 in Snow Light Snow
6:53 AM 3.9 °F -10.4 °F -2.9 °F 73% 30.12 in 10.0 mi North 9.2 mph - 0.00 in   Overcast
7:53 AM 3.9 °F -8.2 °F -2.9 °F 73% 30.14 in 10.0 mi North 6.9 mph - N/A   Overcast
8:53 AM 3.9 °F -10.4 °F -2.9 °F 73% 30.15 in 10.0 mi North 9.2 mph - N/A   Overcast
9:53 AM 5.0 °F -9.1 °F -2.9 °F 70% 30.15 in 10.0 mi NNW 9.2 mph - N/A   Overcast
10:53 AM 5.0 °F -8.1 °F -4.0 °F 66% 30.15 in 10.0 mi NNW 8.1 mph - 0.00 in   Clear
11:53 AM 6.1 °F -6.8 °F -4.0 °F 63% 30.14 in 10.0 mi NW 8.1 mph - 0.00 in   Clear
12:53 PM 7.0 °F -4.5 °F -4.0 °F 61% 30.13 in 10.0 mi NNW 6.9 mph - 0.00 in   Clear
1:53 PM 8.1 °F -2.0 °F -2.9 °F 61% 30.12 in 10.0 mi NW 5.8 mph - 0.00 in   Clear
2:53 PM 8.1 °F 1.4 °F -2.9 °F 61% 30.13 in 10.0 mi NW 3.5 mph - N/A   Clear
3:53 PM 8.1 °F - -4.0 °F 58% 30.13 in 10.0 mi Calm Calm - N/A   Clear
4:53 PM 7.0 °F 0.1 °F -4.0 °F 61% 30.13 in 10.0 mi SW 3.5 mph - N/A   Partly Cloudy
5:53 PM 5.0 °F -4.1 °F -4.0 °F 66% 30.14 in 10.0 mi WSW 4.6 mph - N/A   Clear
6:53 PM 3.9 °F -3.4 °F -4.0 °F 70% 30.13 in 10.0 mi SSW 3.5 mph - N/A   Mostly Cloudy
7:53 PM 3.0 °F - -5.1 °F 69% 30.12 in 10.0 mi Calm Calm - N/A   Scattered Clouds
8:53 PM 1.9 °F -7.6 °F -5.1 °F 72% 30.10 in 10.0 mi SW 4.6 mph - N/A   Clear
9:53 PM -2.0 °F - -7.1 °F 79% 30.09 in 10.0 mi Calm Calm - N/A   Clear
10:53 PM -2.0 °F -10.1 °F -6.0 °F 83% 30.07 in 10.0 mi SW 3.5 mph - N/A   Clear
11:53 PM 3.0 °F -8.0 °F -4.0 °F 73% 30.05 in 10.0 mi SSW 5.8 mph - N/A   Overcast